Index of /~robert/pro/publications/slides

[ICO]NameLast modifiedSizeDescription

[PARENTDIR]Parent Directory  -  
[   ]2008-11-Tsukuba.pdf2022-09-21 13:39 830K 
[   ]2009-04-Rennes.pdf2022-09-21 13:39 1.2M 
[   ]2009-07-JourneesArithmetiques-SaintEtienne.pdf2022-09-21 13:39 837K 
[   ]2009-10-Chic-Paris_isogenies.pdf2022-09-21 13:39 705K 
[   ]2009-10-Chic-Paris_pairings.pdf2022-09-21 13:39 278K 
[   ]2009-11-Marseille.pdf2022-09-21 13:39 1.0M 
[   ]2010-02-Bordeaux.pdf2022-09-21 13:39 1.3M 
[   ]2010-05-Moscou.pdf2022-09-21 13:39 656K 
[   ]2010-07-ANTS-Nancy.pdf2022-09-21 13:39 334K 
[   ]2010-07-Microsoft.pdf2022-09-21 13:39 428K 
[   ]2010-07-Phd-Nancy.pdf2022-09-21 13:39 811K 
[   ]2010-09-Microsoft.pdf2022-09-21 13:39 365K 
[   ]2010-10-ECC-Redmond.pdf2022-09-21 13:39 753K 
[   ]2010-11-LIX-Paris.pdf2022-09-21 13:39 742K 
[   ]2010-12-Bordeaux.pdf2022-09-21 13:39 446K 
[   ]2010-12-Chic-Paris.pdf2022-09-21 13:39 370K 
[   ]2011-01-Grenoble.pdf2022-09-21 13:39 524K 
[   ]2011-01-Versailles.pdf2022-09-21 13:39 524K 
[   ]2011-02-Marseille_pairings.pdf2022-09-21 13:39 246K 
[   ]2011-02-Marseille_theta.pdf2022-09-21 13:39 544K 
[   ]2011-03-Bordeaux.pdf2022-09-21 13:39 297K 
[   ]2011-04-C2-Oleron.pdf2022-09-21 13:39 254K 
[   ]2011-06-Geocrypt-Bastia.pdf2022-09-21 13:39 514K 
[   ]2011-09-Bordeaux.pdf2022-09-21 13:39 258K 
[   ]2011-11-Montpellier.pdf2022-09-21 13:39 607K 
[   ]2012-01-LIX-Paris.pdf2022-09-21 13:39 671K 
[   ]2012-01-Telecom-Paris.pdf2022-09-21 13:39 671K 
[   ]2012-03-Caen.pdf2022-09-21 13:39 523K 
[   ]2012-05-Bordeaux.pdf2022-09-21 13:39 212K 
[   ]2012-07-ANTS-SanDiego.pdf2022-09-21 13:39 270K 
[   ]2012-08-Microsoft.pdf2022-09-21 13:39 272K 
[   ]2012-11-Peace-Paris.pdf2022-09-21 13:39 184K 
[   ]2013-04-Grenoble.pdf2022-09-21 13:39 352K 
[   ]2013-05-Lausanne.pdf2022-09-21 13:39 361K 
[   ]2013-06-AGCT-Marseille.pdf2022-09-21 13:39 284K 
[   ]2013-08-Microsoft-Isogeny.pdf2022-09-21 13:39 285K 
[   ]2013-08-Microsoft-Pairing.pdf2022-09-21 13:39 353K 
[   ]2013-10-Geocrypt-Tahiti.pdf2022-09-21 13:39 320K 
[   ]2013-11-Lfant.pdf2022-09-21 13:39 320K 
[   ]2013-12-Rennes-Peace.pdf2022-09-21 13:39 166K 
[   ]2014-01-Caen.pdf2022-09-21 13:39 390K 
[   ]2014-03-Neuchatel.pdf2022-09-21 13:39 594K 
[   ]2014-04-Grenoble.pdf2022-09-21 13:39 57K 
[   ]2014-05-Ascona.pdf2022-09-21 13:39 342K 
[   ]2014-10-ECC-Chennai.pdf2022-09-21 13:39 513K 
[   ]2014-12-Caen-Arithmetic_slides.pdf2022-09-21 13:39 60K 
[   ]2014-12-Caen-Isogenies.pdf2022-09-21 13:39 422K 
[   ]2015-03-Franceville-Arithmetic.pdf2022-09-21 13:39 373K 
[   ]2015-09-Providence-ICERM.pdf2022-09-21 13:39 639K 
[   ]2015-09-Providence-ICERM_long.pdf2022-09-21 13:39 727K 
[   ]2015-10-C2-LaLondeLesMaures.pdf2022-09-21 13:39 471K 
[   ]2021-06-HDR-Bordeaux.pdf2022-12-08 13:43 3.8M 
[   ]2022-09-Bordeaux-SIDH.pdf2022-12-08 13:43 1.6M 
[   ]2022-09-Leuven-Isogenies.pdf2022-12-08 13:43 4.0M 
[   ]2022-09-Unithe.pdf2022-12-08 13:43 886K 
[   ]2022-11-FrenchTech.pdf2022-12-08 13:43 297K 
[   ]2022-12-VantageSeminar.pdf2022-12-08 13:43 795K 

Apache/2.4.54 (Debian) Server at www.normalesup.org Port 80